Location: Moy Burn
(57.3833°N, 4.0667°W)
Time: 09:22:48
(UTC+00:00)

CENTAUR R/B - Pass Details

Date: 08 August 2020
Orbit: 754 x 1434 km, 63.5° (Epoch: 17 September)

Event Time Altitude Azimuth Distance (km) Brightness Sun altitude
Exits shadow 21:04:49 - 139° (SE) 2,873 4.3 -6.3°
Reaches altitude 10° 21:06:02 10° 130° (SE) 2,678 4.1 -6.4°
Maximum altitude 21:08:51 13° 102° (ESE) 2,540 4.2 -6.7°
Drops below altitude 10° 21:11:51 10° 76° (ENE) 2,901 4.7 -6.9°
Sets 21:16:19 0° 52° (NE) 4,030 5.6 -7.4°
